• Em Portugal
  • Lista de países
  • Para 7 dias
  • Temperatura da água
  • Mapas de satélite
  • Mapa do tempo
  • Widgets de tempo
  • user-avatar
    Iniciar Sessão

    Previsão horária em Uniechowek

    Hoje, 15 Agosto, Quarta-feira

    Tempo Temperatura Precipitação Vento Pressão Humidade
    00:00 +17°C° 0 mm 2 m/s 744 mmHg 87%
    01:00 +17°C° 0 mm 2 m/s 744 mmHg 90%
    02:00 +17°C° 0 mm 3 m/s 744 mmHg 91%
    03:00 +17°C° 0 mm 3 m/s 745 mmHg 93%
    04:00 +16°C° 0 mm 3 m/s 745 mmHg 95%
    05:00 +17°C° 0 mm 4 m/s 745 mmHg 92%
    06:00 +18°C° 0 mm 4 m/s 746 mmHg 89%
    07:00 +19°C° 0 mm 4 m/s 746 mmHg 86%
    08:00 +19°C° 0,2 mm 4 m/s 746 mmHg 83%
    09:00 +20°C° 0,2 mm 4 m/s 747 mmHg 80%
    10:00 +20°C° 0,2 mm 5 m/s 747 mmHg 78%
    11:00 +21°C° 0,5 mm 5 m/s 747 mmHg 74%
    12:00 +22°C° 0,5 mm 5 m/s 748 mmHg 71%
    13:00 +22°C° 0 mm 5 m/s 748 mmHg 68%
    14:00 +23°C° 0,2 mm 5 m/s 748 mmHg 65%
    15:00 +23°C° 0,2 mm 5 m/s 748 mmHg 62%
    16:00 +23°C° 0,2 mm 4 m/s 749 mmHg 59%
    17:00 +22°C° 0 mm 4 m/s 749 mmHg 64%
    18:00 +20°C° 0 mm 3 m/s 749 mmHg 69%
    19:00 +19°C° 0 mm 2 m/s 749 mmHg 74%
    20:00 +18°C° 0 mm 2 m/s 749 mmHg 77%
    21:00 +18°C° 0 mm 1 m/s 750 mmHg 81%
    22:00 +16°C° 0 mm 1 m/s 750 mmHg 84%
    23:00 +16°C° 0 mm 1 m/s 750 mmHg 85%

    Amanhã, 16 Agosto, Quinta-feira

    Tempo Temperatura Precipitação Vento Pressão Humidade
    00:00 +16°C° 0 mm 1 m/s 750 mmHg 86%
    01:00 +15°C° 0 mm 1 m/s 750 mmHg 87%
    02:00 +15°C° 0 mm 1 m/s 750 mmHg 88%
    03:00 +15°C° 0 mm 1 m/s 750 mmHg 89%
    04:00 +15°C° 0 mm 1 m/s 750 mmHg 90%
    05:00 +16°C° 0 mm 1 m/s 750 mmHg 85%
    06:00 +18°C° 0 mm 1 m/s 751 mmHg 80%
    07:00 +20°C° 0 mm 1 m/s 751 mmHg 75%
    08:00 +21°C° 0 mm 1 m/s 751 mmHg 69%
    09:00 +23°C° 0 mm 1 m/s 751 mmHg 63%
    10:00 +25°C° 0 mm 1 m/s 751 mmHg 57%
    11:00 +25°C° 0 mm 1 m/s 751 mmHg 54%
    12:00 +26°C° 0 mm 1 m/s 751 mmHg 51%
    13:00 +27°C° 0 mm 1 m/s 750 mmHg 48%
    14:00 +27°C° 0 mm 1 m/s 750 mmHg 50%
    15:00 +26°C° 0 mm 1 m/s 750 mmHg 52%
    16:00 +26°C° 0 mm 1 m/s 750 mmHg 54%
    17:00 +25°C° 0 mm 1 m/s 749 mmHg 58%
    18:00 +24°C° 0 mm 1 m/s 749 mmHg 61%
    19:00 +23°C° 0 mm 1 m/s 749 mmHg 64%
    20:00 +22°C° 0 mm 1 m/s 749 mmHg 66%
    21:00 +21°C° 0 mm 1 m/s 749 mmHg 68%
    22:00 +20°C° 0 mm 1 m/s 749 mmHg 70%
    23:00 +20°C° 0 mm 1 m/s 749 mmHg 71%

    Depois de amanhã, 17 Agosto, Sexta-feira

    Tempo Temperatura Precipitação Vento Pressão Humidade
    00:00 +19°C° 0 mm 2 m/s 749 mmHg 72%
    01:00 +18°C° 0 mm 2 m/s 749 mmHg 73%
    02:00 +18°C° 0 mm 2 m/s 749 mmHg 74%
    03:00 +17°C° 0 mm 2 m/s 749 mmHg 76%
    04:00 +17°C° 0 mm 2 m/s 749 mmHg 77%
    05:00 +18°C° 0 mm 2 m/s 749 mmHg 74%
    06:00 +19°C° 0 mm 2 m/s 749 mmHg 71%
    07:00 +20°C° 0 mm 3 m/s 749 mmHg 68%
    08:00 +22°C° 0 mm 3 m/s 749 mmHg 62%
    09:00 +25°C° 0 mm 3 m/s 749 mmHg 55%
    10:00 +27°C° 0 mm 3 m/s 749 mmHg 49%
    11:00 +27°C° 0 mm 3 m/s 749 mmHg 48%
    12:00 +28°C° 0 mm 3 m/s 749 mmHg 47%
    13:00 +28°C° 0 mm 3 m/s 748 mmHg 46%
    14:00 +28°C° 0 mm 3 m/s 748 mmHg 46%
    15:00 +28°C° 0 mm 3 m/s 748 mmHg 46%
    16:00 +28°C° 0 mm 2 m/s 748 mmHg 47%
    17:00 +27°C° 0 mm 2 m/s 748 mmHg 51%
    18:00 +26°C° 0 mm 2 m/s 747 mmHg 56%
    19:00 +25°C° 0 mm 2 m/s 747 mmHg 60%
    20:00 +24°C° 0 mm 2 m/s 748 mmHg 61%
    21:00 +23°C° 0 mm 2 m/s 748 mmHg 63%
    22:00 +23°C° 0 mm 2 m/s 748 mmHg 64%
    23:00 +23°C° 0 mm 2 m/s 748 mmHg 64%

    18 Agosto, Sábado

    Tempo Temperatura Precipitação Vento Pressão Humidade
    00:00 +21°C° 0 mm 2 m/s 748 mmHg 65%
    01:00 +21°C° 0 mm 2 m/s 748 mmHg 66%
    02:00 +21°C° 0 mm 2 m/s 748 mmHg 66%
    03:00 +21°C° 0 mm 2 m/s 748 mmHg 66%
    04:00 +22°C° 0 mm 1 m/s 748 mmHg 66%
    05:00 +22°C° 0 mm 1 m/s 748 mmHg 66%
    06:00 +23°C° 0 mm 1 m/s 748 mmHg 67%
    07:00 +23°C° 0 mm 1 m/s 748 mmHg 67%
    08:00 +24°C° 0,3 mm 1 m/s 749 mmHg 65%
    09:00 +25°C° 0,3 mm 1 m/s 749 mmHg 64%
    10:00 +26°C° 0,3 mm 2 m/s 749 mmHg 62%
    11:00 +26°C° 0,6 mm 1 m/s 749 mmHg 61%
    12:00 +26°C° 0,6 mm 1 m/s 749 mmHg 61%
    13:00 +27°C° 0,6 mm 1 m/s 749 mmHg 60%
    14:00 +27°C° 0,5 mm 2 m/s 749 mmHg 60%
    15:00 +26°C° 0,5 mm 2 m/s 749 mmHg 61%
    16:00 +26°C° 0,5 mm 3 m/s 749 mmHg 61%
    17:00 +25°C° 0,3 mm 3 m/s 750 mmHg 68%
    18:00 +22°C° 0,3 mm 3 m/s 750 mmHg 74%
    19:00 +21°C° 0,3 mm 3 m/s 750 mmHg 80%
    20:00 +19°C° 0 mm 3 m/s 750 mmHg 82%
    21:00 +18°C° 0 mm 2 m/s 750 mmHg 83%
    22:00 +17°C° 0 mm 2 m/s 751 mmHg 84%
    23:00 +17°C° 0 mm 2 m/s 751 mmHg 82%

    19 Agosto, Domingo

    Tempo Temperatura Precipitação Vento Pressão Humidade
    00:00 +16°C° 0 mm 1 m/s 751 mmHg 80%
    01:00 +16°C° 0 mm 1 m/s 751 mmHg 78%
    02:00 +16°C° 0 mm 1 m/s 751 mmHg 78%
    03:00 +15°C° 0 mm 1 m/s 751 mmHg 77%
    04:00 +15°C° 0 mm 1 m/s 751 mmHg 76%
    05:00 +16°C° 0 mm 1 m/s 751 mmHg 75%
    06:00 +17°C° 0 mm 2 m/s 752 mmHg 73%
    07:00 +18°C° 0 mm 2 m/s 752 mmHg 71%
    08:00 +20°C° 0 mm 3 m/s 752 mmHg 65%
    09:00 +22°C° 0 mm 3 m/s 752 mmHg 59%
    10:00 +24°C° 0 mm 3 m/s 752 mmHg 53%
    11:00 +25°C° 0 mm 3 m/s 752 mmHg 53%
    12:00 +25°C° 0 mm 4 m/s 752 mmHg 52%
    13:00 +26°C° 0 mm 4 m/s 752 mmHg 51%
    14:00 +26°C° 0 mm 4 m/s 752 mmHg 54%
    15:00 +25°C° 0 mm 3 m/s 751 mmHg 56%
    16:00 +25°C° 0 mm 3 m/s 751 mmHg 58%
    17:00 +24°C° 0 mm 3 m/s 751 mmHg 64%
    18:00 +23°C° 0 mm 2 m/s 751 mmHg 70%
    19:00 +21°C° 0 mm 2 m/s 751 mmHg 76%
    20:00 +21°C° 0 mm 1 m/s 751 mmHg 79%
    21:00 +20°C° 0 mm 1 m/s 751 mmHg 83%
    22:00 +19°C° 0 mm 1 m/s 752 mmHg 86%
    23:00 +19°C° 0 mm 1 m/s 751 mmHg 88%

    20 Agosto, Segunda-feira

    Tempo Temperatura Precipitação Vento Pressão Humidade
    00:00 +18°C° 0 mm 1 m/s 751 mmHg 89%
    01:00 +16°C° 0 mm 0 m/s 751 mmHg 90%
    02:00 +18°C° 0 mm 1 m/s 751 mmHg 91%
    03:00 +18°C° 0 mm 1 m/s 751 mmHg 91%
    04:00 +18°C° 0 mm 1 m/s 751 mmHg 91%
    05:00 +19°C° 0 mm 1 m/s 751 mmHg 87%
    06:00 +20°C° 0 mm 1 m/s 751 mmHg 82%
    07:00 +20°C° 0 mm 2 m/s 751 mmHg 78%
    08:00 +23°C° 0 mm 2 m/s 751 mmHg 70%
    09:00 +24°C° 0 mm 3 m/s 751 mmHg 62%
    10:00 +26°C° 0 mm 3 m/s 750 mmHg 54%
    11:00 +27°C° 0 mm 3 m/s 750 mmHg 51%
    12:00 +28°C° 0 mm 3 m/s 750 mmHg 48%
    13:00 +29°C° 0 mm 3 m/s 749 mmHg 45%
    14:00 +29°C° 0 mm 3 m/s 749 mmHg 45%
    15:00 +29°C° 0 mm 3 m/s 749 mmHg 45%
    16:00 +28°C° 0 mm 3 m/s 748 mmHg 46%
    17:00 +27°C° 0 mm 3 m/s 748 mmHg 51%
    18:00 +26°C° 0 mm 2 m/s 748 mmHg 56%
    19:00 +24°C° 0 mm 2 m/s 748 mmHg 61%
    20:00 +23°C° 0 mm 2 m/s 748 mmHg 67%
    21:00 +21°C° 0 mm 2 m/s 748 mmHg 73%
    22:00 +20°C° 0 mm 2 m/s 748 mmHg 78%
    23:00 +20°C° 0 mm 2 m/s 748 mmHg 81%
    Mostrar mais